Lid_Strength_Index
5 4 4 3 2 2 2 3 5 8 8 5 6 4 3 2 1 2 2 3 3 4 3 3 3 3 3 4 4 4 4 4 5 5 4 4 4 4
3 4 4 3 3 2 2 3 3 5 7 6 4 5 3 3 2 2 2 3 2 2 3 3 3 3 3 3 3 4 5 5 5 5 5 5 5 5
4 4 4 4 5 4 4 4 4 4 6 5 4 3 4 5 4 3 3 3 4 3 3 3 3 3 4 4 3 3 4 4 5 5 5 5 5 5
6 6 6 5 6 6 6 6 6 6 7 8 8 7 6 6 5 5 4 3 4 3 3 3 3 3 3 4 4 4 4 5 5 5 5 5 6 6
6 6 6 6 7 6 6 6 7 6 7 9 9 8 7 7 6 6 6 6 4 2 4 4 3 3 3 4 4 4 4 5 6 5 5 5 6 6
6 6 6 6 7 6 6 6 6 8 8 9 9 9 8 7 7 8 9 8 7 5 4 5 4 3 3 3 3 3 4 4 5 5 6 7 7 7
7 7 6 5 3 3 5 6 7 8 9 9 10 10 10 10 10 9 10 10 9 8 8 7 7 7 7 4 4 3 4 4 4 4 5 6 7 7
8 7 6 5 4 4 3 3 4 6 7 8 9 10 10 10 9 10 11 11 11 9 9 10 8 8 7 7 5 4 4 4 4 4 5 5 6 6
8 7 7 6 6 5 5 4 4 4 5 6 9 9 9 9 9 10 11 11 11 10 10 10 11 10 8 6 4 4 4 4 4 5 5 6 6 6
8 8 8 7 6 5 6 6 6 5 5 5 7 7 8 7 8 8 8 8 8 9 8 11 10 9 9 9 5 4 4 4 4 5 5 6 6 6
7 7 7 7 5 4 5 7 6 6 4 4 4 5 5 5 5 6 9 10 10 10 10 10 10 9 11 10 9 5 5 4 4 4 5 5 5 6
8 7 6 6 5 4 6 6 8 7 8 8 8 7 7 7 7 7 8 9 10 10 8 10 10 10 13 11 8 7 8 5 5 5 5 5 5 6
9 8 7 6 6 5 4 6 7 6 7 8 8 9 9 8 8 7 7 8 9 9 8 8 11 11 10 11 11 10 10 8 7 6 5 4 5 5
9 9 8 7 6 6 6 5 5 6 7 9 9 9 9 8 8 7 6 6 6 6 7 7 8 8 9 10 10 9 10 9 9 8 8 6 5 5
9 8 7 7 7 8 7 7 7 7 8 9 9 9 9 8 7 7 6 7 8 7 6 6 7 7 7 8 10 10 10 9 10 10 11 8 7 11
9 9 9 8 9 9 9 9 9 9 10 11 10 9 8 9 11 8 9 8 12 11 8 7 7 7 8 7 7 8 9 9 8 8 6 6 8 8
9 10 10 11 11 11 10 10 10 10 11 11 10 10 10 10 10 10 12 11 11 10 11 10 9 8 7 8 8 7 8 8 7 8 7 7 6 6
10 12 13 12 12 12 12 12 11 11 11 11 11 11 11 11 11 10 11 13 14 12 11 9 7 8 8 7 5 6 6 6 7 6 6 8 7 9
12 13 13 13 13 12 13 13 13 12 11 12 12 12 11 11 11 12 11 12 13 12 9 11 12 13 13 14 8 5 7 6 5 7 6 6 7 7
13 13 13 13 13 13 13 13 13 13 14 13 13 13 13 11 12 12 12 13 11 12 10 11 13 13 14 14 11 10 5 10 10 10 10 7 8 7
15 14 13 13 14 14 15 15 15 15 15 15 15 14 14 12 13 11 12 12 12 11 11 12 10 11 11 12 11 14 13 6 8 11 11 12 9 9
19 16 14 13 14 14 15 15 15 16 17 17 17 16 15 13 14 12 12 12 13 15 13 11 10 9 12 11 13 18 15 10 9 7 7 8 10 11
21 18 17 16 16 15 14 15 16 18 18 18 18 17 17 16 15 14 13 13 13 14 13 12 11 11 11 10 11 15 15 15 12 13 13 8 8 8